contact:dominique.lefevre@mio.osupytheas.fr, maurice.libes@osupytheas.fr, didier.mallarino@osupytheas.fr
Project:EMSO http://www.emso-fr.org/EMSO-France
Depth: 2436.0 m
Title:EMSO Ligure Ouest : Data MII capteur AQUADOPP
Date,Latitude,Longitude,X_East,Y_North,Z_Up,Amplitude_X,Amplitude_Y,Amplitude_Z,Batterie,SoundSpeed,Heading,Pitch,Roll,Pressure,TIS,Speed,Direction
, degrees North, degrees East, m.s-1, m.s-1,m.s-1, 1, 1, 1, Volt, m.s-1, degree, degree, degree, dbar, degree_C, m.s-1, degree
2020-03-06T00:04:03,42.805,6.029,-0.044,0.027,-0.043,105.0,107.0,102.0,13.4,1505.3,324.3,-0.8,1.9,2470.296,13.32,0.051,301.5
2020-03-06T00:07:03,42.805,6.029,-0.027,0.036,-0.056,105.0,105.0,102.0,13.4,1505.3,324.3,-0.7,1.8,2470.264,13.33,0.045,323.1
2020-03-06T00:10:03,42.805,6.029,-0.048,0.023,-0.097,105.0,109.0,100.0,13.3,1505.3,325.0,-0.7,1.9,2470.304,13.33,0.053,295.6
2020-03-06T00:13:03,42.805,6.029,-0.033,0.029,-0.02,103.0,108.0,101.0,13.4,1505.3,327.6,-0.7,1.8,2470.21,13.33,0.043,311.3
2020-03-06T00:16:03,42.805,6.029,-0.028,0.037,-0.038,104.0,109.0,102.0,13.4,1505.3,327.0,-0.7,1.8,2470.277,13.33,0.046,322.9
2020-03-06T00:19:03,42.805,6.029,-0.009,0.03,-0.042,104.0,110.0,103.0,13.4,1505.4,327.8,-0.7,1.9,2470.246,13.34,0.031,343.3
2020-03-06T00:22:03,42.805,6.029,-0.035,0.014,-0.028,105.0,105.0,101.0,13.3,1505.4,326.4,-0.7,1.8,2470.231,13.34,0.037,291.8
2020-03-06T00:25:03,42.805,6.029,-0.018,0.023,-0.025,104.0,108.0,102.0,13.4,1505.4,323.5,-0.7,1.8,2470.254,13.34,0.029,322.0
2020-03-06T00:28:03,42.805,6.029,-0.044,0.028,-0.044,105.0,107.0,101.0,13.3,1505.4,326.7,-0.7,1.8,2470.259,13.34,0.052,302.5
2020-03-06T00:31:03,42.805,6.029,0.002,0.031,0.0,103.0,107.0,102.0,13.3,1505.4,326.0,-0.7,1.8,2470.277,13.34,0.031,3.7
2020-03-06T00:34:03,42.805,6.029,-0.055,0.017,-0.044,106.0,106.0,102.0,13.4,1505.4,323.2,-0.7,1.8,2470.255,13.34,0.057,287.2
2020-03-06T00:37:03,42.805,6.029,-0.002,0.006,-0.068,104.0,108.0,101.0,13.4,1505.4,326.7,-0.7,1.8,2470.298,13.34,0.006,341.6
2020-03-06T00:40:03,42.805,6.029,-0.028,0.029,-0.031,104.0,107.0,101.0,13.3,1505.4,326.9,-0.7,1.9,2470.267,13.34,0.04,316.0
2020-03-06T00:46:03,42.805,6.029,0.001,0.012,-0.023,105.0,109.0,101.0,13.4,1505.3,327.8,-0.7,1.8,2470.321,13.32,0.012,4.8
2020-03-06T00:49:03,42.805,6.029,-0.009,0.02,-0.062,105.0,107.0,101.0,13.4,1505.3,324.5,-0.7,1.8,2470.241,13.33,0.021,335.8
2020-03-06T00:52:03,42.805,6.029,-0.003,0.022,-0.029,103.0,107.0,100.0,13.4,1505.3,325.3,-0.7,1.8,2470.278,13.33,0.022,352.2
2020-03-06T00:55:03,42.805,6.029,0.006,0.01,-0.002,105.0,107.0,102.0,13.4,1505.3,323.2,-0.7,1.9,2470.277,13.33,0.011,31.0
2020-03-06T00:58:03,42.805,6.029,-0.018,0.02,-0.079,105.0,107.0,102.0,13.3,1505.3,327.7,-0.7,1.8,2470.309,13.33,0.026,318.0
2020-03-06T01:04:03,42.805,6.029,0.006,0.005,-0.013,106.0,109.0,102.0,13.4,1505.3,327.1,-0.7,1.8,2470.321,13.32,0.007,50.2
2020-03-06T01:07:03,42.805,6.029,-0.019,0.005,-0.049,105.0,108.0,102.0,13.4,1505.3,325.0,-0.7,1.8,2470.308,13.33,0.019,284.7
2020-03-06T01:10:03,42.805,6.029,0.004,0.023,-0.013,104.0,109.0,100.0,13.3,1505.3,322.9,-0.7,1.8,2470.356,13.33,0.023,9.9
2020-03-06T01:13:03,42.805,6.029,-0.026,0.017,-0.041,103.0,108.0,102.0,13.4,1505.4,327.6,-0.7,1.8,2470.319,13.34,0.031,303.2
2020-03-06T01:16:03,42.805,6.029,-0.019,0.014,-0.035,104.0,107.0,101.0,13.4,1505.4,325.2,-0.7,1.8,2470.3,13.34,0.023,306.4
2020-03-06T01:19:03,42.805,6.029,-0.013,0.014,-0.058,103.0,109.0,100.0,13.4,1505.4,327.1,-0.7,1.8,2470.314,13.34,0.019,317.1
2020-03-06T01:22:03,42.805,6.029,-0.02,0.021,-0.036,105.0,111.0,102.0,13.3,1505.4,324.7,-0.7,1.8,2470.284,13.34,0.028,316.4
2020-03-06T01:25:03,42.805,6.029,-0.028,-0.006,-0.055,102.0,111.0,105.0,13.4,1505.4,323.5,-0.7,1.8,2470.299,13.34,0.028,257.9
2020-03-06T01:28:03,42.805,6.029,-0.013,0.02,-0.041,105.0,107.0,102.0,13.4,1505.4,325.1,-0.7,1.8,2470.279,13.35,0.023,327.0
2020-03-06T01:31:03,42.805,6.029,-0.011,0.008,-0.05,106.0,111.0,101.0,13.4,1505.4,323.0,-0.7,1.8,2470.314,13.35,0.013,306.0
2020-03-06T01:34:03,42.805,6.029,-0.019,0.03,-0.031,105.0,109.0,100.0,13.4,1505.4,325.1,-0.7,1.8,2470.326,13.35,0.035,327.7
2020-03-06T01:37:03,42.805,6.029,-0.019,0.02,-0.012,105.0,109.0,101.0,13.4,1505.4,323.9,-0.7,1.8,2470.288,13.35,0.027,316.5
2020-03-06T01:40:03,42.805,6.029,-0.006,0.012,-0.081,105.0,106.0,101.0,13.3,1505.4,325.9,-0.7,1.8,2470.29,13.35,0.013,333.4
2020-03-06T01:43:03,42.805,6.029,-0.005,0.006,-0.044,104.0,110.0,102.0,13.4,1505.4,327.8,-0.7,1.8,2470.327,13.35,0.007,320.2
2020-03-06T01:46:03,42.805,6.029,-0.02,0.016,-0.032,104.0,108.0,101.0,13.4,1505.4,324.2,-0.7,1.8,2470.29,13.35,0.025,308.7
2020-03-06T01:49:03,42.805,6.029,-0.009,0.018,-0.077,107.0,109.0,100.0,13.4,1505.4,324.7,-0.7,1.8,2470.31,13.35,0.02,333.4
2020-03-06T01:52:03,42.805,6.029,-0.01,0.016,-0.025,105.0,109.0,103.0,13.3,1505.4,325.9,-0.7,1.8,2470.298,13.35,0.018,328.0
2020-03-06T01:55:03,42.805,6.029,-0.02,0.021,-0.041,103.0,107.0,101.0,13.4,1505.4,326.0,-0.7,1.8,2470.34,13.35,0.028,316.4
2020-03-06T01:58:03,42.805,6.029,-0.001,0.001,-0.038,106.0,110.0,102.0,13.4,1505.4,324.9,-0.7,1.8,2470.289,13.35,0.001,315.0
2020-03-06T02:04:03,42.805,6.029,-0.003,-0.001,-0.054,107.0,109.0,104.0,13.4,1505.3,325.2,-0.8,1.8,2470.339,13.33,0.003,251.6
2020-03-06T02:07:03,42.805,6.029,-0.01,0.003,-0.096,105.0,105.0,100.0,13.4,1505.4,327.1,-0.7,1.9,2470.337,13.34,0.01,286.7
2020-03-06T02:10:03,42.805,6.029,-0.023,0.017,-0.069,104.0,106.0,100.0,13.4,1505.4,327.8,-0.7,1.8,2470.302,13.34,0.028,306.5
2020-03-06T02:13:03,42.805,6.029,-0.013,0.027,-0.082,105.0,107.0,101.0,13.4,1505.4,327.6,-0.7,1.8,2470.316,13.35,0.029,334.3
2020-03-06T02:16:03,42.805,6.029,-0.013,0.03,-0.042,109.0,109.0,100.0,13.4,1505.4,325.0,-0.7,1.8,2470.353,13.35,0.032,336.6
2020-03-06T02:19:03,42.805,6.029,-0.039,0.009,-0.044,106.0,107.0,104.0,13.4,1505.4,323.5,-0.7,1.8,2470.347,13.35,0.04,283.0
2020-03-06T02:22:03,42.805,6.029,-0.01,0.009,-0.051,106.0,106.0,101.0,13.4,1505.4,323.7,-0.7,1.8,2470.321,13.35,0.013,312.0
2020-03-06T02:25:03,42.805,6.029,-0.022,0.0,-0.074,104.0,108.0,103.0,13.4,1505.4,323.0,-0.7,1.9,2470.317,13.35,0.022,270.0
2020-03-06T02:28:03,42.805,6.029,-0.003,0.024,-0.04,105.0,106.0,102.0,13.4,1505.4,327.8,-0.7,1.8,2470.37,13.35,0.024,352.9
2020-03-06T02:31:03,42.805,6.029,-0.011,0.002,-0.061,105.0,106.0,101.0,13.3,1505.4,326.1,-0.7,1.8,2470.316,13.35,0.011,280.3
2020-03-06T02:34:03,42.805,6.029,0.024,0.039,-0.025,105.0,108.0,101.0,13.4,1505.4,326.4,-0.7,1.8,2470.369,13.35,0.045,31.6
2020-03-06T02:37:03,42.805,6.029,-0.017,0.021,-0.053,104.0,108.0,101.0,13.4,1505.4,324.8,-0.7,1.8,2470.311,13.35,0.027,321.0
2020-03-06T02:40:03,42.805,6.029,-0.023,0.004,-0.059,103.0,107.0,100.0,13.3,1505.4,325.0,-0.7,1.9,2470.352,13.35,0.023,279.9
2020-03-06T02:43:03,42.805,6.029,0.024,0.037,-0.023,105.0,107.0,102.0,13.4,1505.4,327.3,-0.7,1.8,2470.347,13.35,0.044,33.0
2020-03-06T02:46:03,42.805,6.029,0.031,0.0,-0.033,102.0,106.0,102.0,13.4,1505.4,325.6,-0.7,1.8,2470.345,13.35,0.03,90.0
2020-03-06T02:49:03,42.805,6.029,0.011,0.001,-0.036,105.0,109.0,101.0,13.4,1505.4,324.4,-0.7,1.8,2470.344,13.35,0.011,84.8
2020-03-06T02:52:03,42.805,6.029,0.027,0.022,-0.04,104.0,108.0,101.0,13.3,1505.4,328.0,-0.7,1.8,2470.308,13.35,0.034,50.8
2020-03-06T02:58:02,42.805,6.029,0.045,0.032,0.01,105.0,105.0,101.0,13.4,1505.3,323.5,-0.7,1.8,2470.383,13.33,0.055,54.6
2020-03-06T03:04:03,42.805,6.029,0.026,0.035,0.003,105.0,107.0,102.0,13.4,1505.3,324.3,-0.8,1.9,2470.389,13.32,0.043,36.6
2020-03-06T03:07:03,42.805,6.029,0.035,0.023,0.013,104.0,107.0,102.0,13.3,1505.3,328.4,-0.7,1.8,2470.37,13.33,0.041,56.7
2020-03-06T03:10:03,42.805,6.029,0.009,0.015,-0.003,101.0,107.0,106.0,13.4,1505.3,326.7,-0.7,1.9,2470.434,13.33,0.017,31.0
2020-03-06T03:13:03,42.805,6.029,0.008,0.004,0.006,104.0,107.0,102.0,13.4,1505.3,323.1,-0.7,1.9,2470.405,13.33,0.008,63.4
2020-03-06T03:16:03,42.805,6.029,0.006,0.005,-0.053,103.0,108.0,103.0,13.4,1505.4,326.7,-0.7,1.8,2470.385,13.34,0.007,50.2
2020-03-06T03:19:03,42.805,6.029,0.03,0.007,-0.008,102.0,107.0,101.0,13.3,1505.4,324.9,-0.7,1.8,2470.35,13.34,0.03,76.9
2020-03-06T03:22:03,42.805,6.029,0.022,0.013,-0.054,106.0,105.0,101.0,13.4,1505.4,325.9,-0.7,1.8,2470.402,13.34,0.025,59.4
2020-03-06T03:25:03,42.805,6.029,0.021,0.025,-0.038,104.0,107.0,101.0,13.4,1505.4,324.6,-0.7,1.8,2470.375,13.34,0.032,40.0
2020-03-06T03:28:03,42.805,6.029,0.025,0.016,-0.034,103.0,106.0,103.0,13.4,1505.4,325.7,-0.7,1.8,2470.393,13.34,0.029,57.4
2020-03-06T03:31:03,42.805,6.029,0.015,0.02,-0.025,105.0,108.0,99.0,13.4,1505.4,326.3,-0.7,1.8,2470.366,13.34,0.025,36.9
2020-03-06T03:34:03,42.805,6.029,0.015,0.012,-0.034,103.0,108.0,102.0,13.4,1505.4,326.1,-0.7,1.8,2470.386,13.35,0.019,51.3
2020-03-06T03:37:03,42.805,6.029,0.027,-0.003,-0.032,105.0,108.0,101.0,13.3,1505.4,325.3,-0.7,1.8,2470.362,13.35,0.027,96.3
2020-03-06T03:40:03,42.805,6.029,0.018,0.023,-0.064,104.0,106.0,101.0,13.4,1505.4,325.8,-0.7,1.8,2470.36,13.35,0.029,38.0
2020-03-06T03:43:03,42.805,6.029,0.004,0.022,-0.007,104.0,107.0,102.0,13.4,1505.4,324.7,-0.7,1.9,2470.372,13.34,0.022,10.3
2020-03-06T03:46:03,42.805,6.029,-0.011,0.0,-0.081,105.0,110.0,101.0,13.3,1505.4,325.1,-0.7,1.8,2470.373,13.34,0.011,270.0
2020-03-06T03:49:03,42.805,6.029,-0.019,0.021,-0.042,103.0,111.0,100.0,13.4,1505.4,325.8,-0.7,1.8,2470.395,13.34,0.028,317.9
2020-03-06T03:52:03,42.805,6.029,0.011,0.017,-0.033,105.0,111.0,102.0,13.4,1505.4,327.3,-0.7,1.8,2470.373,13.34,0.02,32.9
2020-03-06T03:55:03,42.805,6.029,0.012,0.008,-0.022,104.0,109.0,101.0,13.4,1505.4,325.8,-0.7,1.9,2470.342,13.34,0.014,56.3
2020-03-06T03:58:03,42.805,6.029,0.0,0.009,-0.019,103.0,109.0,104.0,13.4,1505.4,327.8,-0.7,1.8,2470.403,13.34,0.009,0.0
2020-03-06T04:04:03,42.805,6.029,0.012,0.0,-0.023,105.0,107.0,102.0,13.3,1505.3,328.2,-0.8,1.9,2470.398,13.32,0.012,90.0
2020-03-06T04:07:03,42.805,6.029,0.042,-0.009,-0.023,106.0,107.0,102.0,13.3,1505.3,323.2,-0.7,1.8,2470.394,13.32,0.042,102.1
2020-03-06T04:10:03,42.805,6.029,0.05,0.009,0.001,104.0,108.0,102.0,13.4,1505.3,324.8,-0.7,1.8,2470.399,13.33,0.05,79.8
2020-03-06T04:13:03,42.805,6.029,0.02,0.012,-0.019,105.0,108.0,101.0,13.4,1505.3,323.7,-0.7,1.8,2470.404,13.33,0.023,59.0
2020-03-06T04:16:03,42.805,6.029,0.033,-0.006,-0.04,105.0,108.0,98.0,13.3,1505.3,324.4,-0.7,1.8,2470.379,13.33,0.033,100.3
2020-03-06T04:19:03,42.805,6.029,0.013,0.001,-0.007,105.0,108.0,101.0,13.3,1505.3,327.0,-0.7,1.9,2470.429,13.33,0.013,85.6
2020-03-06T04:22:03,42.805,6.029,-0.006,0.01,-0.032,105.0,107.0,101.0,13.4,1505.3,327.0,-0.7,1.8,2470.429,13.33,0.011,329.0
2020-03-06T04:25:03,42.805,6.029,0.028,-0.001,-0.034,104.0,108.0,103.0,13.4,1505.3,327.3,-0.7,1.8,2470.409,13.33,0.028,92.0
2020-03-06T04:28:03,42.805,6.029,0.006,0.038,-0.065,106.0,107.0,101.0,13.4,1505.3,323.7,-0.7,1.8,2470.437,13.33,0.038,9.0
2020-03-06T04:31:03,42.805,6.029,0.002,0.041,-0.043,104.0,107.0,101.0,13.4,1505.3,327.2,-0.7,1.8,2470.408,13.33,0.041,2.8
2020-03-06T04:34:03,42.805,6.029,0.002,0.016,-0.036,105.0,106.0,101.0,13.4,1505.3,324.9,-0.7,1.8,2470.412,13.33,0.016,7.1
2020-03-06T04:37:03,42.805,6.029,0.003,0.006,-0.063,104.0,106.0,100.0,13.4,1505.3,325.7,-0.7,1.8,2470.397,13.33,0.006,26.6
2020-03-06T04:40:03,42.805,6.029,-0.037,0.025,-0.071,104.0,106.0,101.0,13.4,1505.3,326.4,-0.8,1.8,2470.425,13.33,0.044,304.0
2020-03-06T04:43:03,42.805,6.029,-0.034,-0.027,-0.065,106.0,107.0,101.0,13.3,1505.3,326.3,-0.7,1.8,2470.43,13.33,0.043,231.5
2020-03-06T04:46:03,42.805,6.029,0.002,0.005,-0.049,103.0,107.0,101.0,13.4,1505.3,324.6,-0.7,1.8,2470.433,13.33,0.005,21.8
2020-03-06T04:49:03,42.805,6.029,-0.03,0.009,-0.065,104.0,107.0,101.0,13.4,1505.3,325.1,-0.7,1.9,2470.43,13.33,0.031,286.7
2020-03-06T04:52:03,42.805,6.029,0.008,0.006,-0.039,104.0,106.0,101.0,13.3,1505.3,326.7,-0.7,1.9,2470.395,13.33,0.01,53.1
2020-03-06T04:55:03,42.805,6.029,-0.014,0.006,-0.052,104.0,106.0,101.0,13.3,1505.3,324.6,-0.7,1.9,2470.38,13.33,0.015,293.2
2020-03-06T04:58:03,42.805,6.029,0.024,-0.009,0.0,104.0,107.0,101.0,13.4,1505.3,323.2,-0.7,1.8,2470.399,13.33,0.025,110.6
2020-03-06T05:04:03,42.805,6.029,0.018,0.021,-0.035,104.0,108.0,101.0,13.3,1505.3,326.3,-0.7,1.8,2470.421,13.31,0.027,40.6
2020-03-06T05:07:03,42.805,6.029,-0.019,-0.014,-0.083,104.0,108.0,102.0,13.4,1505.3,326.3,-0.7,1.8,2470.401,13.32,0.023,233.6
2020-03-06T05:10:03,42.805,6.029,-0.029,-0.011,-0.091,104.0,109.0,101.0,13.3,1505.3,327.6,-0.7,1.8,2470.44,13.32,0.031,249.2
2020-03-06T05:13:03,42.805,6.029,-0.017,-0.018,-0.065,105.0,107.0,101.0,13.3,1505.3,327.4,-0.7,1.8,2470.453,13.33,0.024,223.4
2020-03-06T05:16:03,42.805,6.029,-0.012,0.002,-0.066,105.0,108.0,102.0,13.4,1505.3,327.2,-0.7,1.8,2470.395,13.33,0.012,279.5
2020-03-06T05:19:03,42.805,6.029,-0.023,-0.006,-0.055,106.0,108.0,101.0,13.4,1505.3,326.9,-0.7,1.8,2470.403,13.33,0.023,255.4
2020-03-06T05:22:03,42.805,6.029,0.003,0.006,-0.031,103.0,109.0,101.0,13.4,1505.3,326.1,-0.7,1.9,2470.409,13.33,0.006,26.6
2020-03-06T05:25:03,42.805,6.029,-0.011,-0.007,-0.065,106.0,108.0,101.0,13.4,1505.3,324.3,-0.7,1.8,2470.441,13.33,0.013,237.5
2020-03-06T05:28:03,42.805,6.029,-0.009,0.001,-0.071,105.0,107.0,102.0,13.4,1505.3,325.2,-0.7,1.9,2470.41,13.33,0.009,276.3
2020-03-06T05:31:03,42.805,6.029,0.024,0.014,-0.024,106.0,108.0,102.0,13.4,1505.3,322.8,-0.7,1.8,2470.381,13.33,0.027,59.7
2020-03-06T05:34:03,42.805,6.029,0.003,0.007,-0.042,104.0,106.0,102.0,13.3,1505.3,328.4,-0.7,1.8,2470.385,13.33,0.007,23.2
2020-03-06T05:37:03,42.805,6.029,0.023,0.002,-0.024,105.0,107.0,101.0,13.3,1505.3,325.7,-0.7,1.9,2470.402,13.33,0.023,85.0
2020-03-06T05:40:03,42.805,6.029,0.036,-0.007,-0.029,103.0,107.0,101.0,13.3,1505.3,327.2,-0.7,1.8,2470.426,13.33,0.036,101.0
2020-03-06T05:43:03,42.805,6.029,0.029,-0.01,-0.023,105.0,106.0,101.0,13.3,1505.3,325.2,-0.7,1.8,2470.46,13.33,0.03,109.0
2020-03-06T05:46:03,42.805,6.029,0.026,0.015,-0.021,105.0,107.0,99.0,13.4,1505.3,327.9,-0.7,1.8,2470.419,13.33,0.03,60.0
2020-03-06T05:49:03,42.805,6.029,-0.001,-0.004,-0.031,104.0,109.0,102.0,13.3,1505.3,327.3,-0.7,1.8,2470.44,13.33,0.004,194.0
2020-03-06T05:52:03,42.805,6.029,-0.004,-0.012,-0.051,105.0,107.0,101.0,13.4,1505.3,328.4,-0.7,1.9,2470.382,13.33,0.012,198.4
2020-03-06T05:55:03,42.805,6.029,-0.003,-0.003,-0.044,105.0,108.0,102.0,13.4,1505.3,326.0,-0.7,1.8,2470.384,13.33,0.004,225.0
2020-03-06T05:58:03,42.805,6.029,0.001,0.009,-0.021,103.0,107.0,101.0,13.4,1505.3,327.1,-0.7,1.8,2470.415,13.33,0.009,6.3
2020-03-06T06:04:03,42.805,6.029,0.022,-0.005,-0.046,105.0,107.0,100.0,13.4,1505.3,323.4,-0.8,1.8,2470.456,13.31,0.022,102.8
2020-03-06T06:07:03,42.805,6.029,0.015,0.011,-0.026,105.0,107.0,101.0,13.3,1505.3,326.4,-0.7,1.9,2470.425,13.32,0.018,53.7
2020-03-06T06:10:03,42.805,6.029,-0.009,-0.004,-0.065,105.0,105.0,101.0,13.4,1505.3,327.2,-0.7,1.8,2470.394,13.32,0.009,246.0
2020-03-06T06:13:03,42.805,6.029,-0.003,-0.014,-0.064,104.0,108.0,100.0,13.4,1505.3,324.9,-0.7,1.8,2470.365,13.32,0.014,192.1
2020-03-06T06:16:03,42.805,6.029,-0.007,0.001,-0.022,104.0,107.0,102.0,13.4,1505.3,325.6,-0.7,1.9,2470.396,13.33,0.007,278.1
2020-03-06T06:19:03,42.805,6.029,0.008,-0.019,-0.051,104.0,106.0,101.0,13.3,1505.3,328.1,-0.7,1.8,2470.427,13.33,0.02,157.2
2020-03-06T06:22:03,42.805,6.029,-0.013,-0.016,-0.046,103.0,107.0,101.0,13.4,1505.3,324.2,-0.7,1.9,2470.415,13.33,0.02,219.1
2020-03-06T06:25:03,42.805,6.029,-0.006,-0.004,-0.07,103.0,107.0,102.0,13.4,1505.3,327.2,-0.7,1.8,2470.427,13.33,0.007,236.3
2020-03-06T06:28:03,42.805,6.029,-0.019,0.003,-0.059,104.0,107.0,102.0,13.3,1505.3,326.9,-0.7,1.9,2470.422,13.33,0.019,279.0
2020-03-06T06:31:03,42.805,6.029,-0.006,-0.005,-0.062,103.0,107.0,102.0,13.3,1505.3,324.0,-0.7,1.9,2470.389,13.33,0.007,230.2
2020-03-06T06:34:03,42.805,6.029,0.017,-0.016,-0.011,104.0,106.0,101.0,13.4,1505.3,326.5,-0.7,1.8,2470.393,13.33,0.023,133.3
2020-03-06T06:37:03,42.805,6.029,0.039,-0.014,-0.004,105.0,107.0,102.0,13.4,1505.3,327.9,-0.7,1.8,2470.387,13.33,0.041,109.7
2020-03-06T06:40:03,42.805,6.029,0.037,0.001,-0.013,103.0,106.0,101.0,13.3,1505.3,324.5,-0.7,1.8,2470.426,13.33,0.037,88.5
2020-03-06T06:43:03,42.805,6.029,0.025,-0.011,-0.002,103.0,106.0,101.0,13.4,1505.3,327.2,-0.7,1.8,2470.36,13.33,0.027,113.7
2020-03-06T06:46:03,42.805,6.029,0.001,0.015,-0.027,104.0,107.0,101.0,13.4,1505.3,323.0,-0.7,1.8,2470.404,13.33,0.015,3.8
2020-03-06T06:49:03,42.805,6.029,0.003,0.001,-0.039,105.0,106.0,101.0,13.3,1505.3,325.4,-0.7,1.8,2470.421,13.33,0.003,71.6
2020-03-06T06:52:03,42.805,6.029,0.034,-0.013,-0.011,104.0,106.0,102.0,13.4,1505.3,327.4,-0.7,1.8,2470.362,13.33,0.036,110.9
2020-03-06T06:55:03,42.805,6.029,0.009,-0.011,-0.029,105.0,106.0,102.0,13.4,1505.3,323.5,-0.7,1.8,2470.383,13.33,0.014,140.7
2020-03-06T06:58:03,42.805,6.029,0.02,-0.005,-0.066,103.0,106.0,102.0,13.4,1505.3,326.9,-0.7,1.9,2470.387,13.33,0.02,104.0
2020-03-06T07:04:03,42.805,6.029,0.04,-0.01,-0.004,105.0,106.0,101.0,13.3,1505.3,327.3,-0.7,1.8,2470.391,13.31,0.041,104.0
2020-03-06T07:07:03,42.805,6.029,0.02,-0.004,-0.027,103.0,106.0,100.0,13.4,1505.3,323.4,-0.7,1.9,2470.409,13.31,0.02,101.3
2020-03-06T07:10:03,42.805,6.029,0.002,-0.03,-0.028,105.0,107.0,100.0,13.4,1505.3,326.9,-0.7,1.9,2470.378,13.32,0.03,176.2
2020-03-06T07:13:03,42.805,6.029,0.005,0.002,-0.016,104.0,109.0,102.0,13.4,1505.3,326.5,-0.7,1.8,2470.375,13.32,0.005,68.2
2020-03-06T07:16:03,42.805,6.029,0.01,-0.013,-0.03,105.0,105.0,102.0,13.3,1505.3,324.9,-0.7,1.8,2470.386,13.32,0.016,142.4
2020-03-06T07:19:03,42.805,6.029,0.03,-0.024,-0.028,105.0,106.0,102.0,13.4,1505.3,324.7,-0.7,1.9,2470.343,13.32,0.038,128.7
2020-03-06T07:22:03,42.805,6.029,0.007,-0.017,-0.05,105.0,106.0,101.0,13.4,1505.3,325.2,-0.7,1.9,2470.383,13.33,0.018,157.6
2020-03-06T07:25:03,42.805,6.029,-0.002,-0.022,-0.033,105.0,106.0,101.0,13.4,1505.3,324.8,-0.7,1.8,2470.385,13.33,0.022,185.2
2020-03-06T07:28:03,42.805,6.029,0.025,-0.008,-0.005,104.0,106.0,101.0,13.3,1505.3,326.6,-0.7,1.8,2470.348,13.33,0.026,107.7
2020-03-06T07:31:02,42.805,6.029,0.037,-0.015,-0.025,104.0,107.0,102.0,13.3,1505.3,324.5,-0.7,1.8,2470.354,13.33,0.039,112.1
2020-03-06T07:34:03,42.805,6.029,0.017,0.006,-0.038,107.0,109.0,103.0,13.4,1505.3,325.4,-0.7,1.8,2470.407,13.33,0.018,70.6
2020-03-06T07:37:03,42.805,6.029,0.025,-0.002,-0.028,107.0,107.0,101.0,13.4,1505.3,326.9,-0.7,1.8,2470.387,13.33,0.025,94.6
2020-03-06T07:40:03,42.805,6.029,0.055,-0.016,-0.025,104.0,107.0,102.0,13.3,1505.3,324.6,-0.7,1.8,2470.37,13.33,0.057,106.2
2020-03-06T07:43:03,42.805,6.029,0.045,-0.022,0.002,104.0,106.0,102.0,13.3,1505.3,325.3,-0.7,1.8,2470.39,13.33,0.05,116.1
2020-03-06T07:46:03,42.805,6.029,0.01,-0.03,-0.044,105.0,106.0,101.0,13.4,1505.3,326.8,-0.7,1.9,2470.371,13.33,0.031,161.6
2020-03-06T07:49:03,42.805,6.029,0.015,-0.028,-0.013,105.0,107.0,103.0,13.3,1505.3,325.0,-0.7,1.9,2470.377,13.32,0.031,151.8
2020-03-06T07:52:03,42.805,6.029,0.004,-0.014,-0.03,105.0,107.0,101.0,13.4,1505.3,323.1,-0.7,1.8,2470.367,13.32,0.014,164.1
2020-03-06T07:55:03,42.805,6.029,0.011,-0.023,-0.05,106.0,106.0,102.0,13.4,1505.3,326.1,-0.7,1.8,2470.333,13.32,0.025,154.4
2020-03-06T07:58:03,42.805,6.029,0.012,-0.018,-0.018,105.0,107.0,103.0,13.3,1505.3,326.7,-0.7,1.9,2470.353,13.32,0.021,146.3
2020-03-06T08:04:03,42.805,6.029,0.015,-0.026,-0.053,105.0,107.0,102.0,13.4,1505.3,323.7,-0.8,1.8,2470.386,13.31,0.03,150.0
2020-03-06T08:07:03,42.805,6.029,0.032,-0.014,-0.025,105.0,106.0,103.0,13.4,1505.3,324.0,-0.7,1.9,2470.38,13.31,0.034,113.6
2020-03-06T08:10:03,42.805,6.029,0.007,-0.025,-0.042,106.0,107.0,101.0,13.4,1505.3,323.3,-0.7,1.8,2470.4,13.32,0.025,164.4
2020-03-06T08:13:03,42.805,6.029,0.033,-0.018,-0.041,106.0,106.0,102.0,13.4,1505.3,327.7,-0.7,1.8,2470.335,13.32,0.037,118.6
2020-03-06T08:16:03,42.805,6.029,0.041,-0.019,-0.032,105.0,106.0,102.0,13.3,1505.3,324.3,-0.7,1.8,2470.344,13.32,0.045,114.9
2020-03-06T08:19:03,42.805,6.029,0.014,-0.021,-0.044,105.0,105.0,102.0,13.4,1505.3,324.0,-0.7,1.8,2470.359,13.32,0.025,146.3
2020-03-06T08:22:03,42.805,6.029,0.038,-0.011,-0.015,105.0,106.0,101.0,13.4,1505.3,327.1,-0.7,1.8,2470.331,13.32,0.039,106.1
2020-03-06T08:25:03,42.805,6.029,0.0,-0.004,-0.048,105.0,106.0,102.0,13.3,1505.3,325.1,-0.7,1.9,2470.378,13.32,0.004,180.0
2020-03-06T08:28:03,42.805,6.029,0.008,-0.025,-0.009,105.0,106.0,102.0,13.4,1505.3,326.5,-0.7,1.9,2470.372,13.32,0.026,162.3
2020-03-06T08:31:03,42.805,6.029,0.027,-0.029,-0.052,103.0,106.0,103.0,13.3,1505.3,324.3,-0.7,1.8,2470.348,13.32,0.039,137.0
2020-03-06T08:34:03,42.805,6.029,0.011,-0.009,-0.022,105.0,106.0,101.0,13.4,1505.3,327.7,-0.7,1.8,2470.332,13.32,0.014,129.3
2020-03-06T08:37:03,42.805,6.029,0.02,-0.017,-0.059,104.0,105.0,102.0,13.4,1505.3,324.2,-0.7,1.9,2470.349,13.32,0.026,130.4
2020-03-06T08:40:03,42.805,6.029,0.011,-0.018,-0.02,105.0,105.0,103.0,13.4,1505.3,324.5,-0.7,1.8,2470.339,13.32,0.021,148.6
2020-03-06T08:43:03,42.805,6.029,0.011,-0.047,-0.051,105.0,106.0,103.0,13.4,1505.3,325.9,-0.7,1.8,2470.341,13.32,0.048,166.8
2020-03-06T08:46:03,42.805,6.029,0.005,-0.026,-0.064,106.0,109.0,101.0,13.3,1505.3,328.2,-0.7,1.8,2470.324,13.32,0.026,169.1
2020-03-06T08:49:03,42.805,6.029,0.009,-0.031,-0.067,105.0,105.0,101.0,13.4,1505.3,326.7,-0.7,1.8,2470.342,13.32,0.032,163.8
2020-03-06T08:52:03,42.805,6.029,0.023,-0.014,0.017,106.0,106.0,101.0,13.4,1505.3,323.1,-0.7,1.8,2470.365,13.32,0.026,121.3
2020-03-06T08:55:03,42.805,6.029,0.011,-0.012,-0.029,106.0,106.0,101.0,13.4,1505.3,326.3,-0.7,1.8,2470.275,13.32,0.016,137.5
2020-03-06T08:58:03,42.805,6.029,0.036,-0.013,-0.02,106.0,107.0,102.0,13.4,1505.3,327.7,-0.7,1.8,2470.301,13.32,0.038,109.9
2020-03-06T09:04:03,42.805,6.029,0.045,-0.008,-0.056,105.0,106.0,100.0,13.4,1505.2,327.4,-0.7,1.8,2470.387,13.3,0.045,100.1
2020-03-06T09:07:03,42.805,6.029,0.015,-0.024,-0.033,104.0,107.0,103.0,13.3,1505.3,325.9,-0.7,1.8,2470.368,13.31,0.028,148.0
2020-03-06T09:10:03,42.805,6.029,0.008,-0.024,-0.026,104.0,105.0,101.0,13.4,1505.3,328.3,-0.7,1.8,2470.321,13.32,0.025,161.6
2020-03-06T09:13:03,42.805,6.029,0.011,-0.023,-0.004,105.0,107.0,102.0,13.4,1505.3,326.7,-0.7,1.8,2470.32,13.32,0.025,154.4
2020-03-06T09:16:03,42.805,6.029,0.02,-0.031,-0.039,105.0,106.0,102.0,13.4,1505.3,327.7,-0.7,1.8,2470.348,13.32,0.036,147.2
2020-03-06T09:19:03,42.805,6.029,-0.005,-0.035,0.007,106.0,107.0,102.0,13.4,1505.3,326.5,-0.7,1.9,2470.344,13.32,0.035,188.1
2020-03-06T09:22:03,42.805,6.029,0.015,-0.01,-0.044,105.0,107.0,103.0,13.4,1505.3,327.2,-0.7,1.8,2470.304,13.32,0.018,123.7
2020-03-06T09:25:03,42.805,6.029,0.022,-0.017,-0.048,106.0,105.0,102.0,13.4,1505.3,326.8,-0.7,1.8,2470.266,13.32,0.027,127.7
2020-03-06T09:28:03,42.805,6.029,0.012,-0.013,-0.036,105.0,106.0,100.0,13.4,1505.3,326.0,-0.7,1.8,2470.342,13.32,0.017,137.3
2020-03-06T09:31:03,42.805,6.029,0.007,-0.058,-0.029,105.0,106.0,101.0,13.4,1505.3,326.5,-0.7,1.9,2470.246,13.32,0.058,173.1
2020-03-06T09:34:03,42.805,6.029,0.008,-0.022,-0.026,104.0,106.0,102.0,13.4,1505.3,327.9,-0.7,1.9,2470.325,13.32,0.023,160.0
2020-03-06T09:37:03,42.805,6.029,0.011,-0.014,-0.022,105.0,106.0,102.0,13.4,1505.3,323.0,-0.7,1.8,2470.307,13.32,0.017,141.8
2020-03-06T09:40:03,42.805,6.029,0.002,-0.019,-0.003,106.0,106.0,102.0,13.4,1505.3,326.9,-0.7,1.9,2470.246,13.32,0.019,174.0
2020-03-06T09:43:03,42.805,6.029,-0.001,-0.033,-0.037,107.0,107.0,104.0,13.4,1505.3,326.2,-0.7,1.8,2470.271,13.32,0.033,181.7
2020-03-06T09:46:03,42.805,6.029,0.008,-0.012,-0.038,106.0,107.0,102.0,13.4,1505.3,326.1,-0.7,1.8,2470.291,13.32,0.014,146.3
2020-03-06T09:49:03,42.805,6.029,-0.014,-0.019,-0.044,106.0,107.0,103.0,13.3,1505.3,325.4,-0.7,1.8,2470.249,13.32,0.023,216.4
2020-03-06T09:52:03,42.805,6.029,0.006,-0.002,-0.023,106.0,107.0,102.0,13.3,1505.3,323.0,-0.7,1.8,2470.275,13.32,0.006,108.4
2020-03-06T09:55:03,42.805,6.029,0.01,-0.034,-0.044,105.0,108.0,101.0,13.4,1505.3,327.6,-0.7,1.8,2470.277,13.32,0.035,163.6
2020-03-06T09:58:03,42.805,6.029,-0.003,-0.011,-0.036,106.0,107.0,103.0,13.3,1505.3,325.6,-0.7,1.8,2470.281,13.32,0.011,195.3
2020-03-06T10:04:03,42.805,6.029,0.0,-0.022,-0.043,105.0,107.0,102.0,13.4,1505.2,326.2,-0.7,1.8,2470.315,13.3,0.022,180.0